Rogers, AR

8:43 PM CDT on October 19, 2017 (GMT -0500)
Rogers Municipal-Carter

Weather History for KROG - May, 2014

Change the Weather History Date:

Wednesday, May 21, 2014

  Actual Average Record
Temperature  
Mean Temperature 76 °F -  
Max Temperature 82 °F 73 °F 87 °F (1998)
Min Temperature 66 °F 55 °F 46 °F (2015)
Cooling Degree Days 10    
Growing Degree Days 26 (Base 50)    
Moisture  
Dew Point 63 °F    
Average Humidity 67    
Maximum Humidity 87    
Minimum Humidity 56    
Precipitation  
Precipitation 0.00 in - - ()
Sea Level Pressure  
Sea Level Pressure 30.00 in    
Wind  
Wind Speed 14 mph (SSW)    
Max Wind Speed 21 mph    
Max Gust Speed 29 mph    
Visibility 10 miles    
Events      
Averages and records for this station are not official NWS values.
T = Trace of Precipitation, MM = Missing Value Source: NWS Daily Summary

Daily Weather History Graph

Daily Weather History Graph

Search for Another Location

Airport or City:

Trip Planner

Search our weather history database for the weather conditions in past years. The results will help you decide how hot, cold, wet, or windy it might be!

Date:

Astronomy

May. 21, 2014 Rise Set
Actual Time 6:05 AM CDT 8:21 PM CDT
Civil Twilight 5:36 AM CDT 8:50 PM CDT
Nautical Twilight 5:00 AM CDT 9:26 PM CDT
Astronomical Twilight 4:21 AM CDT 10:05 PM CDT
Moon 1:35 AM CDT (5/21) 1:15 PM CDT (5/21)
Length of Visible Light 15h 13m
Length of Day
14h 15m
Waning Gibbous, 48% of the Moon is Illuminated
May 21
Waning Gibbous
May 28
New
Jun 5
First Quarter
Jun 12
Full
Jun 19
Last Quarter

Hourly Weather History & Observations

Time (CDT) Temp. Heat Index Dew Point Humidity Pressure Visibility Wind Dir Wind Speed Gust Speed Precip Events Conditions
12:57 AM 71.1 °F - 62.1 °F 73% 29.92 in 10.0 mi South 20.7 mph - N/A   Clear
1:57 AM 70.0 °F - 62.1 °F 76% 29.93 in 10.0 mi South 12.7 mph - N/A   Clear
2:57 AM 70.0 °F - 62.1 °F 76% 29.94 in 10.0 mi SSW 10.4 mph - N/A   Clear
4:57 AM 69.1 °F - 61.0 °F 75% 29.94 in 10.0 mi SSW 10.4 mph 20.7 mph N/A   Clear
7:57 AM 71.1 °F - 63.0 °F 75% 30.01 in 10.0 mi SSW 12.7 mph - N/A   Clear
8:57 AM 73.0 °F - 63.0 °F 71% 30.01 in 10.0 mi SSW 18.4 mph 24.2 mph N/A   Clear
9:57 AM 75.0 °F - 62.1 °F 64% 30.01 in 10.0 mi SSW 18.4 mph 28.8 mph N/A   Clear
10:57 AM 77.0 °F - 62.1 °F 60% 30.02 in 10.0 mi SSW 18.4 mph 26.5 mph N/A   Clear
11:57 AM 78.1 °F - 63.0 °F 60% 30.02 in 10.0 mi SSW 15.0 mph 20.7 mph N/A   Clear
1:57 PM 79.0 °F - 64.9 °F 62% 30.02 in 10.0 mi SSW 16.1 mph 24.2 mph N/A   Clear
2:57 PM 81.0 °F 82.7 °F 64.9 °F 58% 30.01 in 10.0 mi SSW 13.8 mph - N/A   Clear
3:57 PM 82.0 °F 83.8 °F 64.9 °F 56% 30.01 in 10.0 mi SSW 18.4 mph - N/A   Clear
4:57 PM 81.0 °F 83.0 °F 66.0 °F 60% 30.01 in 10.0 mi SSW 13.8 mph 17.3 mph N/A   Clear
5:57 PM 81.0 °F 82.7 °F 64.9 °F 58% 29.99 in 10.0 mi SSW 13.8 mph - N/A   Clear
6:57 PM 79.0 °F - 63.0 °F 58% 29.99 in 10.0 mi SSW 15.0 mph - N/A   Clear
7:57 PM 77.0 °F - 61.0 °F 58% 29.99 in 10.0 mi SSW 11.5 mph - N/A   Clear
8:57 PM 73.9 °F - 62.1 °F 66% 30.00 in 10.0 mi SSW 6.9 mph - N/A   Clear
9:57 PM 71.1 °F - 62.1 °F 73% 30.03 in 10.0 mi SW 5.8 mph - N/A   Clear
10:57 PM 71.1 °F - 62.1 °F 73% 30.05 in 10.0 mi SSW 3.5 mph - N/A   Clear
11:57 PM 66.0 °F - 62.1 °F 87% 30.07 in 10.0 mi Calm Calm - N/A   Clear